Location: Bieg
(49.3499°N, 10.3835°E)
Time: 16:53:50
(UTC+00:00)

Okean 2 - Pass Details

Date: 12 August 2024
Orbit: 535 x 551 km, 82.5° (Epoch: 06 September)

Event Time Altitude Azimuth Distance (km) Brightness Sun altitude
Rises 00:05:37 0° 359° (N) 2,703 8.1 -25.1°
Reaches altitude 10° 00:08:04 10° 13° (NNE) 1,805 7.0 -25.0°
Maximum altitude 00:11:25 26° 71° (ENE) 1,087 5.1 -24.9°
Enters shadow 00:12:06 25° 88° (E) 1,124 5.0 -24.9°
